SCOUT A DEB, 2386

Orbit data source: Space-Track

SCOUT A DEB, 2386 is space debris in LEO originally from a launch on Sat, 26 Mar 1966 UTC launched from the Air Force Western Test Range (AFWTR). Debris objects in space refer to the collection of defunct objects orbiting the Earth. Examples of debris include non-operational satellites, rocket bodies, and fragments generated from explosions, collisions, or faulty payload assembly.

Loading next visibility...
SCOUT A DEB details
Identifier
2386, 1966-024D
Orbit
LEO
Last TLE update14 hours ago
Origin
Flag of USUSN BuWeps (US)
ManufacturerUnknown
MissionSpacecraft
Bus & MotorUnknown
MassUnknown
Launch date (UTC)
1966-03-26 (59 years ago)
Launch vehicleUnknown
Launch site
Air Force Western Test Range (AFWTR)
Object type
Payload
Rocket body
Debris
Shape & HBRUnknown
Radar Cross SectionSmall (<0.1 m²)

Expand to show TLE details & history

TLE from 14 hours ago
0 SCOUT A DEB
1  2386U 66024D   25044.02860657  .00000636  00000-0  55355-3 0  9997
2  2386  90.0627 328.8227 0129878  29.5380 331.3045 13.81246934636318
Epoch: 2025-02-13T00:41Z
Definitive object data (Epoch: 2025-02-13T00:41:11.607Z)
Latitude0.00003°
Longitude175.21374°
Altitude879.145 km
Speed7.455 km/s
True Right ascension21h 55m 17s
True Declination0° 00' 00"
Sunlit
Object was in daylight at TLE epoch
Visualization TLE readout
Latitude88.1243°
Longitude173.31282°
Altitude925.342 km
Speed7.42 km/s
Apparent Right ascension05h 25m 33s
Apparent Declination33° 46' 51"
Sunlit
Object is in daylight
Visualization observer readout
Local Sidereal Time17:35:46
Azimuth2.21° NNE
Elevation-16.265°
Doppler factor1
Orbital elements
Apogee altitude1,051.731 km
Perigee altitude861.211 km
Semi-major axis7,334.608 km
Eccentricity0.0129878
Inclination90.0627°
RAAN328.8227°
Arg. of periapsis29.538°
True anomaly330.57959°
Mean anomaly331.3045°
Eccentric anomaly330.94308°
Mean motion3.45524 °/min
BSTAR0.00055355
Orbital period104.19 mins
Loading maneuver chart data...
Loading historical data...
Loading historical data...
Loading historical data...
Loading historical data...
Loading historical data...
Loading historical data...
Loading historical data...

SCOUT A DEB Visibility forecast

Observer location: undefined°, undefined

Span
Click to sort rows by Start time (UTC) header in descending order
Start Az.
Max El. time (UTC)
Max El. Az.
Max El.
End time (UTC)
End Az.
7 mins2025-02-13 18:12:39.048Z122.186° SE2025-02-13 18:15:39.048Z83.994° E22.662°2025-02-13 18:19:39.048Z30.023° NE
8 mins2025-02-13 19:56:39.048Z216.551° SW2025-02-13 19:59:39.048Z266.422° W32.1°2025-02-13 20:04:39.048Z339.764° N
11 mins2025-02-14 06:49:39.048Z13.086° NNE2025-02-14 06:54:39.048Z92.787° ESE40.764°2025-02-14 07:00:39.048Z168.775° S
6 mins2025-02-14 08:35:39.048Z315.462° NNW2025-02-14 08:38:39.048Z279.253° WNW19.216°2025-02-14 08:41:39.048Z247.526° W
|